Hourly Data Report for October 06, 2017

All times are specified in Local Standard Time (LST). Add 1 hour to adjust for Daylight Saving Time where and when it is observed.

CLYDE RIVER A
NUNAVUT

70°29'09.000" N
68°31'01.000" W
26.50 m
2400804
71090
YCY

Download Data

Hourly Data (October 2017)
Hourly Data Report for October 6, 2017
Temp Definition
°C
Dew Point Temp Definition
°C
Rel Hum Definition
%
Wind Dir Definition
10's deg

Wind Spd Definition
km/h
Visibility Definition
km
Stn Press Definition
kPa
Hmdx Definition


Wind Chill Definition


Weather Definition


TIME
00:00 Legend Double Dagger -1.7 -3.6 87 3 11 16.1 100.25   -6 LegendNANA
01:00 Legend Double Dagger -1.6 -3.3 88 6 11 16.1 100.23   -5 LegendNANA
02:00 Legend Double Dagger -1.3 -3.5 85 8 21 16.1 100.21   -7 LegendNANA
03:00 Legend Double Dagger -2.6 -4.6 86 4 11 16.1 100.19   -7 LegendNANA
04:00 Legend Double Dagger -3.4 -5.0 89 3 15 16.1 100.16   -9 LegendNANA
05:00 Legend Double Dagger -4.6 -6.2 89 36 15 16.1 100.13   -10 LegendNANA
06:00 Legend Double Dagger -2.6 -4.0 90 35 15 16.1 100.12   -8 LegendNANA
07:00 Legend Double Dagger -2.4 -3.8 90 36 13 16.1 100.10   -7 LegendNANA
08:00 Legend Double Dagger -1.3 -4.5 79 2 21 16.1 100.08   -7 LegendNANA
09:00 Legend Double Dagger -1.0 -3.7 82 2 18 16.1 100.05   -6 LegendNANA
10:00 Legend Double Dagger -1.0 -3.2 85 36 18 16.1 100.02   -6 LegendNANA
11:00 Legend Double Dagger -0.6 -2.8 85 1 21 16.1 99.97   -6 LegendNANA
12:00 Legend Double Dagger -0.8 -2.9 86 36 22 16.1 99.93   -7 LegendNANA
13:00 Legend Double Dagger -0.8 -2.9 86 36 18 16.1 99.95   -6 LegendNANA
14:00 Legend Double Dagger -0.9 -3.0 86 36 18 16.1 99.93   -6 LegendNANA
15:00 Legend Double Dagger -1.1 -3.0 87 36 21 16.1 99.92   -7 LegendNANA
16:00 Legend Double Dagger -1.4 -3.1 88 36 18 16.1 99.91   -7 LegendNANA
17:00 Legend Double Dagger -1.6 -3.5 87 36 18 16.1 99.90   -7 LegendNANA
18:00 Legend Double Dagger -1.9 -3.9 86 36 18 16.1 99.89   -7 LegendNANA
19:00 Legend Double Dagger -1.8 -3.7 87 36 18 16.1 99.89   -7 LegendNANA
20:00 Legend Double Dagger -1.6 -3.6 86 1 21 16.1 99.88   -7 LegendNANA
21:00 Legend Double Dagger -1.9 -3.9 86 35 21 16.1 99.90   -8 LegendNANA
22:00 Legend Double Dagger -2.3 -4.2 87 35 18 16.1 99.89   -8 LegendNANA
23:00 Legend Double Dagger -2.0 -4.2 85 35 21 16.1 99.89   -8 LegendNANA

Notes on Data Quality.

Legend

  • E = Estimated
  • M = Missing
  • NA = Not Available
  • ‡ = Partner data that is not subject to review by the National Climate Archives
Date modified: